Meteo pe oră la Dzierszyn

Astăzi, 3 Martie, Miercuri

Timp Temperatura Precipitaţii Vânt Presiune Umiditate
00:00 +4°C° 0 mm 1 m/s 753 mmHg 87%
01:00 +3°C° 0 mm 1 m/s 753 mmHg 89%
02:00 +3°C° 0 mm 1 m/s 753 mmHg 89%
03:00 +3°C° 0 mm 1 m/s 752 mmHg 88%
04:00 +3°C° 0 mm 1 m/s 752 mmHg 88%
05:00 +3°C° 0 mm 1 m/s 752 mmHg 88%
06:00 +3°C° 0 mm 1 m/s 752 mmHg 88%
07:00 +3°C° 0 mm 1 m/s 752 mmHg 88%
08:00 +5°C° 0 mm 1 m/s 752 mmHg 81%
09:00 +7°C° 0 mm 1 m/s 751 mmHg 74%
10:00 +8°C° 0 mm 1 m/s 751 mmHg 67%
11:00 +10°C° 0 mm 1 m/s 751 mmHg 62%
12:00 +10°C° 0 mm 2 m/s 750 mmHg 56%
13:00 +12°C° 0 mm 2 m/s 750 mmHg 51%
14:00 +12°C° 0 mm 1 m/s 749 mmHg 52%
15:00 +12°C° 0 mm 1 m/s 748 mmHg 53%
16:00 +12°C° 0 mm 1 m/s 748 mmHg 54%
17:00 +11°C° 0 mm 1 m/s 747 mmHg 57%
18:00 +9°C° 0 mm 2 m/s 747 mmHg 61%
19:00 +7°C° 0 mm 2 m/s 747 mmHg 64%
20:00 +7°C° 0 mm 3 m/s 746 mmHg 66%
21:00 +5°C° 0 mm 3 m/s 746 mmHg 69%
22:00 +5°C° 0 mm 4 m/s 746 mmHg 72%
23:00 +4°C° 0 mm 4 m/s 745 mmHg 75%

Mâine, 4 Martie, Joi

Timp Temperatura Precipitaţii Vânt Presiune Umiditate
00:00 +4°C° 0 mm 4 m/s 745 mmHg 78%
01:00 +4°C° 0 mm 4 m/s 745 mmHg 81%
02:00 +3°C° 0 mm 4 m/s 744 mmHg 81%
03:00 +3°C° 0 mm 4 m/s 743 mmHg 82%
04:00 +3°C° 0 mm 4 m/s 742 mmHg 82%
05:00 +2°C° 0 mm 5 m/s 742 mmHg 81%
06:00 +2°C° 0 mm 5 m/s 742 mmHg 81%
07:00 +2°C° 0 mm 5 m/s 742 mmHg 80%
08:00 +4°C° 0 mm 6 m/s 741 mmHg 77%
09:00 +5°C° 0 mm 6 m/s 741 mmHg 74%
10:00 +8°C° 0 mm 7 m/s 741 mmHg 70%
11:00 +9°C° 0 mm 7 m/s 740 mmHg 66%
12:00 +9°C° 0 mm 7 m/s 740 mmHg 61%
13:00 +10°C° 0 mm 7 m/s 740 mmHg 56%
14:00 +10°C° 0 mm 6 m/s 739 mmHg 57%
15:00 +10°C° 0 mm 6 m/s 739 mmHg 58%
16:00 +10°C° 0 mm 5 m/s 738 mmHg 59%
17:00 +9°C° 0.2 mm 5 m/s 738 mmHg 66%
18:00 +8°C° 0.2 mm 4 m/s 738 mmHg 73%
19:00 +6°C° 0.2 mm 4 m/s 738 mmHg 81%
20:00 +5°C° 0.4 mm 3 m/s 738 mmHg 82%
21:00 +4°C° 0.4 mm 3 m/s 738 mmHg 84%
22:00 +3°C° 0.4 mm 3 m/s 738 mmHg 86%
23:00 +2°C° 0.1 mm 3 m/s 738 mmHg 85%

Poimâine, 5 Martie, Vineri

Timp Temperatura Precipitaţii Vânt Presiune Umiditate
00:00 +2°C° 0.1 mm 3 m/s 738 mmHg 84%
01:00 +1°C° 0.1 mm 3 m/s 738 mmHg 84%
02:00 +1°C° 0.6 mm 3 m/s 738 mmHg 88%
03:00 0°C° 0.6 mm 3 m/s 738 mmHg 92%
04:00 -1°C° 0.6 mm 3 m/s 738 mmHg 96%
05:00 -2°C° 0.5 mm 4 m/s 739 mmHg 93%
06:00 -2°C° 0.5 mm 4 m/s 740 mmHg 90%
07:00 -3°C° 0.5 mm 4 m/s 740 mmHg 86%
08:00 -2°C° 0 mm 4 m/s 741 mmHg 81%
09:00 -2°C° 0 mm 4 m/s 741 mmHg 76%
10:00 -1°C° 0 mm 4 m/s 742 mmHg 71%
11:00 -1°C° 0 mm 4 m/s 742 mmHg 65%
12:00 0°C° 0 mm 4 m/s 743 mmHg 59%
13:00 +1°C° 0 mm 4 m/s 743 mmHg 53%
14:00 0°C° 0 mm 4 m/s 743 mmHg 53%
15:00 0°C° 0 mm 4 m/s 743 mmHg 52%
16:00 0°C° 0 mm 4 m/s 744 mmHg 52%
17:00 0°C° 0 mm 3 m/s 744 mmHg 56%
18:00 -1°C° 0 mm 3 m/s 745 mmHg 61%
19:00 -1°C° 0 mm 2 m/s 746 mmHg 65%
20:00 -2°C° 0 mm 2 m/s 746 mmHg 66%
21:00 -2°C° 0 mm 2 m/s 746 mmHg 66%
22:00 -2°C° 0 mm 2 m/s 747 mmHg 67%
23:00 -2°C° 0 mm 2 m/s 747 mmHg 67%

6 Martie, Sâmbătă

Timp Temperatura Precipitaţii Vânt Presiune Umiditate
00:00 -2°C° 0 mm 2 m/s 748 mmHg 68%
01:00 -2°C° 0 mm 2 m/s 748 mmHg 69%
02:00 -2°C° 0 mm 2 m/s 748 mmHg 69%
03:00 -2°C° 0 mm 2 m/s 749 mmHg 70%
04:00 -2°C° 0 mm 2 m/s 749 mmHg 70%
05:00 -2°C° 0 mm 3 m/s 749 mmHg 69%
06:00 -2°C° 0 mm 3 m/s 750 mmHg 68%
07:00 -2°C° 0 mm 3 m/s 750 mmHg 68%
08:00 -2°C° 0 mm 3 m/s 751 mmHg 62%
09:00 -1°C° 0 mm 3 m/s 751 mmHg 56%
10:00 0°C° 0 mm 3 m/s 752 mmHg 50%
11:00 0°C° 0 mm 3 m/s 752 mmHg 47%
12:00 0°C° 0 mm 3 m/s 752 mmHg 43%
13:00 +1°C° 0 mm 3 m/s 752 mmHg 40%
14:00 +1°C° 0 mm 3 m/s 751 mmHg 40%
15:00 0°C° 0 mm 3 m/s 751 mmHg 41%
16:00 0°C° 0 mm 3 m/s 751 mmHg 41%
17:00 -1°C° 0 mm 3 m/s 751 mmHg 46%
18:00 -1°C° 0 mm 2 m/s 751 mmHg 51%
19:00 -2°C° 0 mm 2 m/s 751 mmHg 55%
20:00 -2°C° 0 mm 2 m/s 751 mmHg 56%
21:00 -4°C° 0 mm 3 m/s 751 mmHg 58%
22:00 -4°C° 0 mm 3 m/s 751 mmHg 59%
23:00 -4°C° 0 mm 3 m/s 751 mmHg 59%

7 Martie, Duminică

Timp Temperatura Precipitaţii Vânt Presiune Umiditate
00:00 -3°C° 0 mm 4 m/s 751 mmHg 60%
01:00 -3°C° 0 mm 4 m/s 750 mmHg 60%
02:00 -3°C° 0 mm 4 m/s 750 mmHg 59%
03:00 -4°C° 0 mm 5 m/s 749 mmHg 59%
04:00 -4°C° 0 mm 5 m/s 749 mmHg 58%
05:00 -4°C° 0 mm 5 m/s 748 mmHg 56%
06:00 -4°C° 0 mm 5 m/s 748 mmHg 55%
07:00 -4°C° 0 mm 6 m/s 748 mmHg 54%
08:00 -3°C° 0 mm 6 m/s 748 mmHg 49%
09:00 -2°C° 0 mm 7 m/s 747 mmHg 44%
10:00 0°C° 0 mm 7 m/s 747 mmHg 39%
11:00 0°C° 0 mm 7 m/s 746 mmHg 39%
12:00 +2°C° 0 mm 7 m/s 746 mmHg 38%
13:00 +3°C° 0 mm 7 m/s 745 mmHg 38%
14:00 +2°C° 0 mm 6 m/s 745 mmHg 40%
15:00 +2°C° 0 mm 6 m/s 744 mmHg 43%
16:00 +2°C° 0 mm 5 m/s 744 mmHg 46%
17:00 +1°C° 0 mm 4 m/s 743 mmHg 51%
18:00 -1°C° 0 mm 4 m/s 743 mmHg 56%
19:00 -2°C° 0 mm 4 m/s 743 mmHg 61%
20:00 -2°C° 0 mm 4 m/s 743 mmHg 62%
21:00 -1°C° 0 mm 3 m/s 743 mmHg 64%
22:00 -2°C° 0 mm 3 m/s 743 mmHg 65%
23:00 -2°C° 0 mm 3 m/s 743 mmHg 66%

8 Martie, Luni

Timp Temperatura Precipitaţii Vânt Presiune Umiditate
00:00 -2°C° 0 mm 3 m/s 742 mmHg 67%
01:00 -2°C° 0 mm 3 m/s 742 mmHg 67%
02:00 -2°C° 0 mm 3 m/s 742 mmHg 68%
03:00 -2°C° 0 mm 3 m/s 741 mmHg 68%
04:00 -3°C° 0 mm 4 m/s 741 mmHg 68%
05:00 -3°C° 0 mm 4 m/s 741 mmHg 69%
06:00 -3°C° 0 mm 4 m/s 741 mmHg 69%
07:00 -3°C° 0 mm 4 m/s 741 mmHg 70%
08:00 -2°C° 0 mm 5 m/s 741 mmHg 68%
09:00 -1°C° 0 mm 5 m/s 741 mmHg 66%
10:00 -1°C° 0 mm 6 m/s 741 mmHg 65%
11:00 -1°C° 0 mm 6 m/s 741 mmHg 68%
12:00 0°C° 0 mm 5 m/s 741 mmHg 71%
13:00 0°C° 0 mm 5 m/s 741 mmHg 74%
14:00 0°C° 0.1 mm 5 m/s 741 mmHg 75%
15:00 0°C° 0.1 mm 4 m/s 741 mmHg 76%
16:00 +1°C° 0.1 mm 3 m/s 741 mmHg 77%
17:00 0°C° 0 mm 3 m/s 742 mmHg 75%
18:00 -1°C° 0 mm 3 m/s 742 mmHg 73%
19:00 -2°C° 0 mm 2 m/s 743 mmHg 71%
20:00 -3°C° 0 mm 2 m/s 743 mmHg 71%
21:00 -3°C° 0 mm 2 m/s 744 mmHg 71%
22:00 -2°C° 0 mm 1 m/s 744 mmHg 71%
23:00 -4°C° 0 mm 2 m/s 745 mmHg 74%
Arată mai mult

Formular de consimțământ

Meteoprog și furnizorii noștri de servicii pot stoca și accesa date personale, precum cookies, identificatori de dispozitiv sau alte tehnologii similare pe dispozitivul dumneavoastră și procesa astfel de date pentru a personaliza conținutul și reclamele, dar și pentru a oferi caracteristici de social media și pentru a analiza traficul.

  • Stocarea și/sau accesarea informațiilor pe dispozitivul dumneavoastră

    Cookies, identificatori de dispozitiv sau alte informații pot fi stocate sau accesate pe dispozitiv în scopurile indicate mai sus.

  • Reclame și conținut personalizat, evaluarea reclamelor și a conținutului, informații despre audiențe și dezvoltarea produselor

    Reclamele și conținutul pot fi personalizate pe baza unui profil. Pot fi adăugate date suplimentare pentru a personaliza mai bine reclamele și conținutul. Performanța reclamelor și conținutului poate fi măsurată. Pot fi obținute informații despre utilizatorii care au văzut reclamele și conținutul. Aceste date pot fi utilizate pentru a dezvolta sau îmbunătăți experiența utilizatorilor, sistemele și software-ul.

Dând clic pe ‘Sunt de acord’, permiteți utilizarea cookie-urilor menționate, a identificatorilor de dispozitiv, balizelor web sau altor tehnologii similare. Setările pot fi modificate din browser-ul dispozitivului dumneavoastră.

În anumite scopuri, interesele legitime pot prima asupra consimțământului. Puteți citi mai multe informații în acest sens în Politica privind Confidențialitatea Datelor și Cookie.